Weather History for KNQX - December, 2012

Change the Weather History Date:

Tuesday, December 4, 2012

  Actual Average Record
Temperature  
Mean Temperature 74 °F -  
Max Temperature 79 °F 77 °F 84 °F (1983)
Min Temperature 68 °F 68 °F 56 °F (1959)
Cooling Degree Days 8    
Growing Degree Days 24 (Base 50)    
Moisture  
Dew Point 63 °F    
Average Humidity 71    
Maximum Humidity 88    
Minimum Humidity 56    
Precipitation  
Precipitation 0.03 in - - ()
Sea Level Pressure  
Sea Level Pressure 30.15 in    
Wind  
Wind Speed 9 mph (ENE)    
Max Wind Speed 15 mph    
Max Gust Speed 22 mph    
Visibility 10 miles    
Events Rain    
Averages and records for this station are not official NWS values.
T = Trace of Precipitation, MM = Missing Value Source: NWS Daily Summary

Daily Weather History Graph

Daily Weather History Graph

Search for Another Location

Airport or City:

Trip Planner

Search our weather history database for the weather conditions in past years. The results will help you decide how hot, cold, wet, or windy it might be!

Date:

Astronomy

Dec. 04, 2012 Rise Set
Actual Time 6:56 AM EST 5:37 PM EST
Civil Twilight 6:31 AM EST 6:02 PM EST
Nautical Twilight 6:03 AM EST 6:30 PM EST
Astronomical Twilight 5:35 AM EST 6:58 PM EST
Moon 11:00 PM EST (12/4) 11:10 AM EST (12/4)
Length of Visible Light 11h 30m
Length of Day
10h 41m
Waning Gibbous, 69% of the Moon is Illuminated
Dec 4
Waning Gibbous
Dec 6
Last Quarter
Dec 13
New
Dec 20
First Quarter
Dec 28
Full

Hourly Weather History & Observations

Time (EST) Temp. Dew Point Humidity Pressure Visibility Wind Dir Wind Speed Gust Speed Precip Events Conditions
12:53 AM 70.0 °F 57.9 °F 65% 30.17 in 10.0 mi NE 6.9 mph - N/A   Partly Cloudy
1:53 AM 70.0 °F 59.0 °F 68% 30.15 in 10.0 mi NE 6.9 mph - N/A   Clear
2:53 AM 70.0 °F 60.1 °F 71% 30.14 in 10.0 mi NNE 8.1 mph - N/A   Partly Cloudy
3:53 AM 70.0 °F 61.0 °F 73% 30.14 in 10.0 mi NNE 9.2 mph - N/A   Scattered Clouds
4:53 AM 70.0 °F 61.0 °F 73% 30.14 in 10.0 mi NNE 6.9 mph - N/A   Scattered Clouds
5:53 AM 71.1 °F 62.1 °F 73% 30.14 in 10.0 mi NE 9.2 mph - N/A   Mostly Cloudy
6:53 AM 68.0 °F 64.0 °F 87% 30.16 in 6.0 mi ESE 4.6 mph - 0.03 in Rain Light Rain
6:56 AM 68.0 °F 64.4 °F 88% 30.16 in 10.0 mi ESE 3.5 mph - 0.00 in   Mostly Cloudy
7:53 AM 69.1 °F 63.0 °F 81% 30.17 in 10.0 mi NE 9.2 mph - 0.00 in   Mostly Cloudy
8:53 AM 71.1 °F 63.0 °F 75% 30.18 in 10.0 mi ENE 10.4 mph - N/A   Mostly Cloudy
9:53 AM 73.9 °F 64.0 °F 71% 30.20 in 10.0 mi ENE 11.5 mph - N/A   Mostly Cloudy
10:53 AM 75.0 °F 63.0 °F 66% 30.20 in 10.0 mi NE 10.4 mph 17.3 mph N/A   Mostly Cloudy
11:53 AM 75.0 °F 63.0 °F 66% 30.18 in 10.0 mi NE 11.5 mph 18.4 mph N/A   Mostly Cloudy
12:53 PM 77.0 °F 63.0 °F 62% 30.16 in 10.0 mi ENE 12.7 mph 19.6 mph N/A   Mostly Cloudy
1:53 PM 79.0 °F 62.1 °F 56% 30.12 in 10.0 mi East 13.8 mph 21.9 mph N/A   Mostly Cloudy
2:53 PM 78.1 °F 62.1 °F 58% 30.12 in 10.0 mi East 15.0 mph 21.9 mph N/A   Mostly Cloudy
3:53 PM 75.9 °F 63.0 °F 64% 30.12 in 10.0 mi East 11.5 mph - N/A   Mostly Cloudy
4:53 PM 75.0 °F 63.0 °F 66% 30.12 in 10.0 mi ENE 9.2 mph - N/A   Mostly Cloudy
5:53 PM 73.9 °F 63.0 °F 68% 30.13 in 10.0 mi ENE 9.2 mph 19.6 mph N/A   Mostly Cloudy
6:53 PM 73.0 °F 64.0 °F 73% 30.14 in 10.0 mi ENE 11.5 mph 20.7 mph N/A   Mostly Cloudy
7:53 PM 73.0 °F 63.0 °F 71% 30.15 in 10.0 mi ENE 10.4 mph - N/A   Mostly Cloudy
8:53 PM 72.0 °F 63.0 °F 73% 30.15 in 10.0 mi ENE 8.1 mph - N/A   Mostly Cloudy
9:53 PM 71.1 °F 64.0 °F 78% 30.15 in 10.0 mi NE 6.9 mph - N/A   Mostly Cloudy
10:53 PM 71.1 °F 64.0 °F 78% 30.14 in 10.0 mi NE 6.9 mph - N/A   Clear
11:53 PM 71.1 °F 64.9 °F 81% 30.13 in 10.0 mi NE 6.9 mph - N/A   Clear